Hourly Data Report for December 23, 2003

TORONTO CITY
ONTARIO

43°40'00.000" N
79°24'00.000" W
112.50 m
6158355
71508
XTO

Download Data

Hourly Data (December 2003)
Hourly Data Report for December 23, 2003
TIME
LST
Temp Definition
°C
Dew Point Definition
°C
Rel Hum Definition
%
Precip. Amount Definition
mm

Wind Dir Definition
10's deg

Wind Spd Definition
km/h
Visibility Definition
km
Stn Press Definition
kPa
Hmdx Definition


Wind Chill Definition


Weather Definition


00:00 5.2 2.8 84   LegendMM LegendMM LegendMM 99.93     LegendNANA
01:00 4.7 2.7 87   LegendMM LegendMM LegendMM 99.91     LegendNANA
02:00 4.5 3.3 92   LegendMM LegendMM LegendMM 99.91     LegendNANA
03:00 4.9 3.4 90   LegendMM LegendMM LegendMM 99.92     LegendNANA
04:00 5.1 3.9 92   LegendMM LegendMM LegendMM 99.88     LegendNANA
05:00 5.0 4.3 95   LegendMM LegendMM LegendMM 99.78     LegendNANA
06:00 5.2 4.8 97   LegendMM LegendMM LegendMM 99.75     LegendNANA
07:00 5.5 5.2 98   LegendMM LegendMM LegendMM 99.70     LegendNANA
08:00 5.7 5.4 98   LegendMM LegendMM LegendMM 99.70     LegendNANA
09:00 5.5 5.3 99   LegendMM LegendMM LegendMM 99.61     LegendNANA
10:00 5.6 5.4 99   LegendMM LegendMM LegendMM 99.56     LegendNANA
11:00 5.8 5.8 100   LegendMM LegendMM LegendMM 99.44     LegendNANA
12:00 7.4 7.3 99   LegendMM LegendMM LegendMM 99.33     LegendNANA
13:00 7.7 6.8 94   LegendMM LegendMM LegendMM 99.30     LegendNANA
14:00
15:00 7.4 6.7 95   LegendMM LegendMM LegendMM 99.31     LegendNANA
16:00 7.7 6.7 93   LegendMM LegendMM LegendMM 99.32     LegendNANA
17:00 7.5 7.0 97   LegendMM LegendMM LegendMM 99.35     LegendNANA
18:00 7.8 7.5 98   LegendMM LegendMM LegendMM 99.31     LegendNANA
19:00 7.9 7.6 98   LegendMM LegendMM LegendMM 99.30     LegendNANA
20:00 7.5 7.3 99   LegendMM LegendMM LegendMM 99.23     LegendNANA
21:00 8.6 8.1 97   LegendMM LegendMM LegendMM 99.19     LegendNANA
22:00 8.2 7.8 97   LegendMM LegendMM LegendMM 99.20     LegendNANA
23:00 7.9 7.6 98   LegendMM LegendMM LegendMM 99.26     LegendNANA

Notes on Data Quality.

Legend

  • E = Estimated
  • M = Missing
  • NA = Not Available*
  • [empty] = Indicates an unobserved value
Date modified: